GW5798 Weather Reports


Display with metric or nautical units.
time (UTC)temp
F
wind
direction
speed
MPH
gust
MPH
rain 1hr
in
rain 24hr
in
rain mn
in
humidity
%
barometer
mb
20260507075038 66 50 1.0 6.0 0.00 0.00 0.00 83 1013.7
20260507074048 66 207 1.0 3.0 0.00 0.00 0.00 83 1013.4
20260507073018 66 278 1.0 3.0 0.00 0.00 0.00 83 1013.7
20260507072129 67 236 1.0 3.0 0.00 0.00 0.00 83 1013.9
20260507071059 67 280 0.0 2.0 0.00 0.00 0.00 83 1013.9
20260507070049 67 176 1.0 6.0 0.00 0.00 0.00 82 1014.2
20260507065039 67 269 1.0 4.0 0.00 0.00 0.00 83 1014.1
20260507064029 67 282 1.0 6.0 0.00 0.00 0.00 82 1014.0
20260507063038 67 320 2.0 4.0 0.00 0.00 0.00 82 1014.2
20260507062110 67 303 1.0 4.0 0.00 0.00 0.00 82 1013.7
20260507061059 67 17 1.0 4.0 0.00 0.00 0.00 82 1014.0
20260507060049 67 193 1.0 4.0 0.00 0.00 0.00 82 1013.6
20260507055039 67 283 1.0 3.0 0.00 0.00 0.00 82 1013.7
20260507054029 67 314 1.0 6.0 0.00 0.00 0.00 82 1013.8
20260507053019 68 322 1.0 4.0 0.00 0.00 0.00 82 1013.7
20260507052110 68 244 2.0 6.0 0.00 0.00 0.00 82 1013.4
20260507051100 68 356 1.0 4.0 0.00 0.00 0.00 81 1013.5
20260507050130 69 345 1.0 3.0 0.00 0.00 0.00 81 1013.4
20260507045040 69 317 1.0 4.0 0.00 0.00 0.00 81 1013.6
20260507044030 69 335 1.0 4.0 0.00 0.00 0.00 81 1013.4
20260507043020 69 184 2.0 4.0 0.00 0.00 0.00 80 1013.6
20260507042131 69 325 1.0 3.0 0.00 0.00 0.00 80 1013.5
20260507041101 70 101 1.0 4.0 0.00 0.00 0.00 80 1013.3
20260507040051 70 358 2.0 4.0 0.00 0.00 0.00 79 1013.4
20260507035041 70 329 2.0 8.0 0.00 0.00 0.00 79 1013.3
20260507034031 71 280 1.0 7.0 0.00 0.00 0.00 78 1013.3
20260507033021 71 324 1.0 7.0 0.00 0.00 0.00 79 1013.0
20260507032112 71 105 2.0 6.0 0.00 0.00 0.00 79 1012.8
20260507031102 72 227 1.0 2.0 0.00 0.00 0.00 79 1012.7
20260507030112 72 339 1.0 3.0 0.00 0.00 0.00 79 1012.6
20260507025041 72 67 1.0 6.0 0.00 0.00 0.00 79 1012.3
20260507024052 73 328 1.0 4.0 0.00 0.00 0.00 79 1012.2
20260507023021 73 326 1.0 3.0 0.00 0.00 0.00 79 1011.9
20260507022112 73 292 1.0 7.0 0.00 0.00 0.00 79 1011.6
20260507021103 73 342 1.0 3.0 0.00 0.00 0.00 79 1011.4
20260507020052 73 243 1.0 3.0 0.00 0.00 0.00 79 1011.2
20260507015042 74 348 1.0 3.0 0.00 0.00 0.00 79 1011.3
20260507014032 74 212 1.0 4.0 0.00 0.00 0.00 79 1011.0
20260507013022 74 199 1.0 3.0 0.00 0.00 0.00 79 1010.8
20260507012133 74 203 0.0 2.0 0.00 0.00 0.00 79 1010.7
20260507011103 75 219 1.0 3.0 0.00 0.00 0.00 79 1010.6
20260507010053 75 326 1.0 6.0 0.00 0.00 0.00 79 1010.5
20260507005043 76 315 0.0 2.0 0.00 0.00 0.00 80 1010.4
20260507004033 76 170 1.0 4.0 0.00 0.00 0.00 79 1010.0
20260507003038 76 20 1.0 6.0 0.00 0.00 0.00 79 1009.8
20260507002134 77 304 1.0 6.0 0.00 0.00 0.00 80 1009.4
20260507001111 78 270 2.0 8.0 0.00 0.00 0.00 78 1009.2
20260507000054 79 156 1.0 4.0 0.00 0.00 0.00 77 1009.3
20260506235044 83 86 3.0 13.0 0.00 0.00 0.00 75 1009.2
20260506234054 85 265 1.0 4.0 0.00 0.00 0.00 79 1008.9
20260506233024 85 93 1.0 4.0 0.00 0.00 0.00 78 1008.7
20260506232135 85 274 0.0 2.0 0.00 0.00 0.00 77 1008.7
20260506231105 86 0.0 1.0 0.00 0.00 0.00 75 1008.6
20260506230115 86 0.0 1.0 0.00 0.00 0.00 73 1008.6
20260506225045 87 0.0 0.0 0.00 0.00 0.00 72 1008.6
20260506224034 87 0.0 1.0 0.00 0.00 0.00 72 1008.6
20260506223045 87 41 0.0 3.0 0.00 0.00 0.00 71 1008.6
20260506222115 87 315 0.0 2.0 0.00 0.00 0.00 71 1008.5
20260506221106 88 185 0.0 2.0 0.00 0.00 0.00 70 1008.5
20260506220215 88 50 0.0 2.0 0.00 0.00 0.00 69 1008.4
20260506215045 88 205 1.0 3.0 0.00 0.00 0.00 72 1008.4
20260506214035 87 150 0.0 3.0 0.00 0.00 0.00 72 1008.5
20260506213025 87 114 1.0 4.0 0.00 0.00 0.00 72 1008.5
20260506212136 87 109 2.0 6.0 0.00 0.00 0.00 73 1008.6
20260506211106 87 132 3.0 6.0 0.00 0.00 0.00 72 1008.5
20260506210116 86 105 0.0 2.0 0.00 0.00 0.00 73 1008.6
20260506205046 86 148 0.0 1.0 0.00 0.00 0.00 74 1008.8
20260506204056 86 143 0.0 2.0 0.00 0.00 0.00 75 1008.9
20260506203026 85 125 1.0 3.0 0.00 0.00 0.00 75 1009.1
20260506202016 86 229 1.0 6.0 0.00 0.00 0.00 74 1009.1
20260506201107 87 147 1.0 4.0 0.00 0.00 0.00 72 1009.1
20260506200057 88 153 1.0 4.0 0.00 0.00 0.00 71 1009.0
20260506195047 86 170 1.0 4.0 0.00 0.00 0.00 73 1009.1
20260506194037 85 221 1.0 4.0 0.00 0.00 0.00 75 1009.4
20260506193027 85 202 1.0 6.0 0.00 0.00 0.00 75 1009.3
20260506192037 85 249 0.0 2.0 0.00 0.00 0.00 76 1009.5
20260506191128 84 185 1.0 2.0 0.00 0.00 0.00 78 1009.6
20260506190057 83 287 0.0 3.0 0.00 0.00 0.00 80 1009.7
20260506185048 84 191 2.0 6.0 0.00 0.00 0.00 76 1009.7
20260506184058 85 125 0.0 2.0 0.00 0.00 0.00 77 1009.9
20260506183027 84 140 1.0 3.0 0.00 0.00 0.00 77 1010.1
20260506182017 83 161 1.0 2.0 0.00 0.00 0.00 79 1010.2
20260506181109 83 227 0.0 2.0 0.00 0.00 0.00 81 1010.4
20260506180058 83 165 1.0 4.0 0.00 0.00 0.00 80 1010.6
20260506175048 82 158 0.0 2.0 0.00 0.00 0.00 81 1010.9
20260506174038 82 168 0.0 2.0 0.00 0.00 0.00 81 1010.9
20260506173028 83 0.0 1.0 0.00 0.00 0.00 81 1011.2
20260506172018 82 160 1.0 4.0 0.00 0.00 0.00 82 1011.3
20260506171109 81 92 1.0 3.0 0.00 0.00 0.00 82 1011.3
20260506170119 81 195 1.0 3.0 0.00 0.00 0.00 84 1011.3
20260506165049 80 144 0.0 3.0 0.00 0.00 0.00 85 1011.3
20260506164139 80 271 1.0 7.0 0.00 0.00 0.00 85 1011.1
20260506163049 80 288 1.0 4.0 0.00 0.00 0.00 83 1011.2
20260506162019 81 257 0.0 2.0 0.00 0.00 0.00 82 1010.9
20260506161110 81 189 1.0 3.0 0.00 0.00 0.00 83 1010.8
20260506160100 80 161 0.0 2.0 0.00 0.00 0.00 83 1010.8
20260506155110 80 185 1.0 4.0 0.00 0.00 0.00 83 1010.7
20260506154100 80 184 1.0 7.0 0.00 0.00 0.00 84 1010.8
20260506153030 80 0.0 2.0 0.00 0.00 0.00 85 1010.7
20260506152020 80 70 1.0 3.0 0.00 0.00 0.00 85 1010.5
20260506151111 80 116 1.0 3.0 0.00 0.00 0.00 86 1010.3
20260506150101 80 187 0.0 4.0 0.00 0.00 0.00 86 1010.3
20260506145111 80 175 1.0 3.0 0.00 0.00 0.00 86 1010.3
20260506144041 80 91 0.0 2.0 0.00 0.00 0.00 87 1010.0
20260506143031 79 24 1.0 2.0 0.00 0.00 0.00 88 1009.7
20260506142021 79 149 1.0 3.0 0.00 0.00 0.00 89 1009.7
20260506141111 79 175 0.0 3.0 0.00 0.00 0.00 89 1009.9
20260506135051 78 183 0.0 2.0 0.00 0.00 0.00 91 1009.9
20260506134101 77 190 0.0 2.0 0.00 0.00 0.00 92 1010.1
20260506133031 77 144 1.0 3.0 0.00 0.00 0.00 93 1009.9
20260506132021 76 210 0.0 2.0 0.00 0.00 0.00 93 1010.2
20260506131112 76 172 0.0 1.0 0.00 0.00 0.00 94 1010.2
20260506125052 76 232 1.0 3.0 0.00 0.00 0.00 94 1010.3
20260506124042 76 211 0.0 2.0 0.00 0.00 0.00 95 1010.0
20260506123032 75 80 1.0 3.0 0.00 0.00 0.00 95 1009.9
20260506122022 75 0.0 1.0 0.00 0.00 0.00 95 1009.9
20260506121113 75 161 1.0 3.0 0.00 0.00 0.00 95 1009.7
20260506115053 75 180 0.0 3.0 0.00 0.00 0.00 95 1009.6
20260506114103 75 0.0 1.0 0.00 0.00 0.00 95 1009.4
20260506113033 75 0.0 1.0 0.00 0.00 0.00 95 1009.3
20260506112023 75 228 0.0 3.0 0.00 0.00 0.00 95 1009.1
20260506111114 75 161 1.0 2.0 0.00 0.00 0.00 95 1009.0
20260506110104 75 200 1.0 3.0 0.00 0.00 0.00 95 1009.0
20260506105114 74 115 1.0 3.0 0.00 0.00 0.00 94 1008.9
20260506104043 75 88 0.0 2.0 0.00 0.00 0.00 94 1008.8
20260506103033 75 115 0.0 2.0 0.00 0.00 0.00 94 1008.9
20260506102024 75 137 1.0 4.0 0.00 0.00 0.00 93 1008.8
20260506101115 75 252 1.0 4.0 0.00 0.00 0.00 93 1008.8
20260506100125 75 149 1.0 2.0 0.00 0.00 0.00 93 1008.7
20260506095054 75 171 1.0 6.0 0.00 0.00 0.00 93 1008.8
20260506094044 75 170 1.0 6.0 0.00 0.00 0.00 92 1008.6
20260506093034 75 160 2.0 7.0 0.00 0.00 0.00 92 1008.4
20260506092024 76 99 1.0 8.0 0.00 0.00 0.00 92 1008.6
20260506091115 76 209 1.0 6.0 0.00 0.00 0.00 91 1008.5
20260506090105 76 142 1.0 6.0 0.00 0.00 0.00 91 1008.6
20260506085055 76 127 1.0 4.0 0.00 0.00 0.00 91 1008.7
20260506084105 76 163 1.0 7.0 0.00 0.00 0.00 91 1008.7
20260506083055 76 127 1.0 4.0 0.00 0.00 0.00 91 1008.9
20260506082025 76 180 2.0 4.0 0.00 0.00 0.00 91 1008.9
20260506081116 76 161 1.0 3.0 0.00 0.00 0.00 91 1008.9
20260506080106 76 252 1.0 3.0 0.00 0.00 0.00 92 1009.0